Roseburg, OR

6:09 PM PST on December 17, 2017 (GMT -0800)
Roseburg Regional

Weather History for KRBG - March, 2014

Change the Weather History Date:

Tuesday, March 11, 2014

  Actual Average Record
Temperature  
Mean Temperature 49 °F 48 °F  
Max Temperature 61 °F 57 °F 79 °F (1934)
Min Temperature 36 °F 39 °F 22 °F (1956)
Degree Days  
Heating Degree Days 16 17  
Month to date heating degree days 118 192  
Since 1 July heating degree days 3045 3061  
Cooling Degree Days 0 0  
Month to date cooling degree days 0 0  
Year to date cooling degree days 0 0  
Moisture  
Dew Point 35 °F    
Average Humidity 71    
Maximum Humidity 100    
Minimum Humidity 42    
Precipitation  
Precipitation 0.00 in 0.10 in 0.69 in (1964)
Month to date precipitation 2.28 1.08  
Year to date precipitation 9.73 10.12  
Sea Level Pressure  
Sea Level Pressure 30.47 in    
Wind  
Wind Speed 3 mph (NNE)    
Max Wind Speed 14 mph    
Max Gust Speed 17 mph    
Visibility 8 miles    
Events      
T = Trace of Precipitation, MM = Missing Value Source: NWS Daily Summary

Daily Weather History Graph

Daily Weather History Graph

Search for Another Location

Airport or City:

Trip Planner

Search our weather history database for the weather conditions in past years. The results will help you decide how hot, cold, wet, or windy it might be!

Date:

Astronomy

Mar. 11, 2014 Rise Set
Actual Time 7:32 AM PDT 7:15 PM PDT
Civil Twilight 7:04 AM PDT 7:43 PM PDT
Nautical Twilight 6:31 AM PDT 8:16 PM PDT
Astronomical Twilight 5:57 AM PDT 8:50 PM PDT
Moon 2:50 PM PDT (3/11) 4:35 AM PDT (3/11)
Length of Visible Light 12h 39m
Length of Day
11h 42m
Waxing Gibbous, 79% of the Moon is Illuminated
Mar 11
Waxing Gibbous
Mar 16
Full
Mar 23
Last Quarter
Mar 30
New
Apr 7
First Quarter

Hourly Weather History & Observations

Time (PDT) Temp. Windchill Dew Point Humidity Pressure Visibility Wind Dir Wind Speed Gust Speed Precip Events Conditions
12:53 AM 39.0 °F - 35.1 °F 86% 30.52 in 10.0 mi Calm Calm - N/A   Clear
1:53 AM 37.9 °F - 34.0 °F 86% 30.53 in 10.0 mi Calm Calm - N/A   Clear
2:53 AM 37.0 °F - 33.1 °F 86% 30.52 in 10.0 mi Calm Calm - N/A   Clear
3:26 AM 37.0 °F - 33.1 °F 86% 30.51 in 10.0 mi Calm Calm - N/A   Scattered Clouds
3:34 AM 36.0 °F - 33.1 °F 89% 30.50 in 10.0 mi Calm Calm - N/A   Mostly Cloudy
3:45 AM 36.0 °F - 33.1 °F 89% 30.51 in 10.0 mi Calm Calm - N/A   Scattered Clouds
3:53 AM 36.0 °F - 33.1 °F 89% 30.52 in 10.0 mi Calm Calm - N/A   Mostly Cloudy
4:53 AM 37.0 °F - 34.0 °F 89% 30.52 in 10.0 mi Calm Calm - N/A   Overcast
5:17 AM 37.0 °F - 35.1 °F 93% 30.51 in 9.0 mi Calm Calm - N/A   Overcast
5:53 AM 37.0 °F - 35.1 °F 93% 30.53 in 7.0 mi Calm Calm - N/A   Overcast
6:25 AM 37.0 °F 34.5 °F 35.1 °F 93% 30.52 in 2.0 mi SSE 3.5 mph - N/A   Overcast
6:43 AM 37.0 °F - 34.0 °F 89% 30.52 in 1.2 mi Calm Calm - N/A   Overcast
6:51 AM 37.4 °F - 35.6 °F 93% 30.52 in 3.0 mi Calm Calm - N/A   Overcast
6:53 AM 37.0 °F 34.5 °F 35.1 °F 93% 30.53 in 3.0 mi East 3.5 mph - N/A   Overcast
7:03 AM 36.0 °F - 34.0 °F 93% 30.52 in 2.0 mi Calm Calm - N/A   Overcast
7:23 AM 36.0 °F - 35.1 °F 97% 30.52 in 1.0 mi Calm Calm - N/A   Overcast
7:53 AM 36.0 °F - 35.1 °F 97% 30.52 in 2.5 mi Calm Calm - N/A   Overcast
8:00 AM 36.0 °F - 35.1 °F 97% 30.51 in 5.0 mi Calm Calm - N/A   Overcast
8:08 AM 37.0 °F 34.5 °F 34.0 °F 89% 30.51 in 1.8 mi ENE 3.5 mph - N/A   Overcast
8:16 AM 36.0 °F - 34.0 °F 93% 30.51 in 3.0 mi Calm Calm - N/A   Overcast
8:43 AM 37.0 °F - 34.0 °F 89% 30.51 in 10.0 mi Calm Calm - N/A   Overcast
8:53 AM 37.0 °F 34.5 °F 33.1 °F 86% 30.53 in 10.0 mi NNE 3.5 mph - N/A   Overcast
9:53 AM 37.9 °F - 34.0 °F 86% 30.53 in 10.0 mi Calm Calm - N/A   Overcast
10:24 AM 39.9 °F - 34.0 °F 79% 30.51 in 10.0 mi Calm Calm - N/A   Scattered Clouds
10:53 AM 42.1 °F - 34.0 °F 73% 30.51 in 10.0 mi Calm Calm - N/A   Clear
11:53 AM 45.0 °F 40.6 °F 35.1 °F 68% 30.49 in 10.0 mi North 8.1 mph - N/A   Partly Cloudy
12:53 PM 48.0 °F - 35.1 °F 61% 30.45 in 10.0 mi North 10.4 mph - N/A   Clear
1:53 PM 51.1 °F - 34.0 °F 52% 30.41 in 10.0 mi North 8.1 mph - N/A   Clear
2:53 PM 55.0 °F - 36.0 °F 49% 30.37 in 10.0 mi North 9.2 mph - N/A   Clear
3:53 PM 59.0 °F - 37.9 °F 46% 30.34 in 10.0 mi NNW 9.2 mph - N/A   Clear
4:53 PM 61.0 °F - 37.9 °F 42% 30.32 in 10.0 mi NNW 8.1 mph - N/A   Clear
5:53 PM 60.1 °F - 39.0 °F 46% 30.31 in 10.0 mi NNW 8.1 mph - N/A   Clear
6:53 PM 57.0 °F - 39.0 °F 51% 30.31 in 10.0 mi North 9.2 mph - N/A   Clear
7:53 PM 54.0 °F - 39.9 °F 59% 30.33 in 10.0 mi Calm Calm - N/A   Clear
8:53 PM 51.1 °F - 39.9 °F 66% 30.34 in 10.0 mi Calm Calm - N/A   Clear
9:53 PM 46.9 °F - 39.9 °F 77% 30.35 in 10.0 mi North 3.5 mph - N/A   Clear
10:53 PM 45.0 °F - 39.0 °F 80% 30.36 in 10.0 mi Calm Calm - N/A   Clear
11:53 PM 43.0 °F - 37.9 °F 82% 30.36 in 10.0 mi Calm Calm - N/A   Clear